Regional Weather Roundup
Issued by NWS

Home | Current Version | Previous Version | Text Only | Print | Product List | Glossary Off
Versions: 1 2 3 4 5 6 7 8 9 10 11 12 13 14 15 16 17 18 19 20 21 22 23 24 25 26 27 28 29 30 31 32 33 34 35 36 37 38 39 40 41 42 43 44 45 46 47 48 49 50

000
ASUS43 KOAX 202202
RWRNE

WEATHER ROUNDUP FOR NEBRASKA
NATIONAL WEATHER SERVICE OMAHA NE
400 PM CST SAT DEC 20 2014

NOTES: SATELLITE DATA IS BEING USED TO AUGMENT CLOUD COVER ABOVE
       12000 FEET.
       "FAIR" INDICATES FEW OR NO CLOUDS BELOW 12,000 FEET WITH NO
       SIGNIFICANT WEATHER AND/OR OBSTRUCTIONS TO VISIBILITY.

  * THESE STATIONS DO NOT REPORT WEATHER SUCH AS RAIN...SNOW OR FOG.

NEZ001>004-019>022-054>056-202300-
NEBRASKA PANHANDLE

CITY           SKY/WX    TMP DP  RH WIND       PRES   REMARKS
SCOTTSBLUFF    SUNNY     43  29  57 CALM      29.92S
ALLIANCE       SUNNY     40  30  67 W6        29.91S
CHADRON        SUNNY     46  30  53 S3        29.90S
SIDNEY         MOSUNNY   46  28  49 VRB3      29.94S
$$

NEZ057>060-069>072-079>082-202300-
SOUTHWEST NEBRASKA

CITY           SKY/WX    TMP DP  RH WIND       PRES   REMARKS
NORTH PLATTE   CLOUDY    38  28  67 W5        29.94F WCI  34
IMPERIAL       PTSUNNY   46  28  49 W6        29.96S
MCCOOK         CLOUDY    48  29  47 CALM      29.97R
$$

NEZ005>010-023>029-035>040-094-202300-
NORTH CENTRAL NEBRASKA

CITY           SKY/WX    TMP DP  RH WIND       PRES   REMARKS
VALENTINE      MOCLDY    40  28  62 W3        29.90R
BROKEN BOW     MOCLDY    40  32  73 CALM      29.93R
$$

NEZ041-046>049-061>064-073>077-083>087-202300-
SOUTH CENTRAL NEBRASKA

CITY           SKY/WX    TMP DP  RH WIND       PRES   REMARKS
GRAND ISLAND   CLOUDY    37  33  85 SE6       30.00R WCI  32
HASTINGS       MOCLDY    43  33  68 S6        29.98R
KEARNEY *      CLOUDY    37  30  75 S9        29.98R WCI  31
$$

NEZ011>018-030>034-042>045-202300-
NORTHEAST NEBRASKA

CITY           SKY/WX    TMP DP  RH WIND       PRES   REMARKS
NORFOLK        CLOUDY    33  31  92 SE9       30.01S FOG     WCI  25
BLAIR          CLOUDY    33  32  96 SE6       30.06R FOG     WCI  27
COLUMBUS *     CLOUDY    32  28  86 S8        30.05R WCI  25
TEKAMAH        CLOUDY    33  31  92 SE12      30.07R FOG     WCI  24
$$

NEZ050>053-065>068-078-088>093-202300-
SOUTHEAST NEBRASKA

CITY           SKY/WX    TMP DP  RH WIND       PRES   REMARKS
LINCOLN        CLOUDY    35  31  85 S6        30.06R FOG     WCI  30
OMAHA EPPLEY   CLOUDY    34  32  92 S10       30.09R FOG     WCI  26
FALLS CITY     CLOUDY    36  33  89 CALM      30.09S FOG
$$

NEZ044-045-051>053-067-202300-
OMAHA AREA

CITY           SKY/WX    TMP DP  RH WIND       PRES   REMARKS
OMAHA EPPLEY   CLOUDY    34  32  92 S10       30.09R FOG     WCI  26
BLAIR          CLOUDY    33  32  96 SE6       30.06R FOG     WCI  27
OFFUTT AFB     CLOUDY    34  32  94 SE6       30.08R WCI  29
$$


USA.gov is the U.S. government's official web portal to all federal, state and local government web resources and services.